Other Public Products
Issued by NWS Charleston, SC

Current Version | Previous Version | Text Only | Print | Product List | Glossary On
Versions: 1 2 3 4 5 6 7 8 9 10 11 12 13 14 15 16 17 18 19 20 21 22 23 24 25 26 27 28 29 30 31 32 33 34 35 36 37 38 39 40 41 42 43 44 45 46 47 48 49 50
000
FPUS82 KCHS 281112
OPUCHS

TEST...KCHS/KSAV Gateway Observations...TEST
National Weather Service Charleston SC
700 AM EDT FRI JUL 28 2017

NOTE: "fair" indicates few or no clouds below 12,000 feet with no
significant weather and/or obstructions to visibility.

SCZ050-WAZ558-NCZ071-TXZ119-213-PAZ071-DCZ001-FLZ074-172-MI076-
NYZ176-178-MAZ016-IL014-TNZ027-NJZ106-GAZ044-MD014-281200-

...Gateway Observations for Charleston International...

CITY           SKY/WX    TMP DP  RH WIND       PRES   REMARKS
Chas Airport   PTCLDY    77  74  90 CALM      29.90R
Seattle        CLOUDY    59  53  80 N7        30.11S
Charlotte      MOCLDY    75  74  96 S7        29.89F
Dallas DFW     CLOUDY    84  70  62 SW13      29.90R
Dallas Love    MOCLDY    84  70  62 SW9       29.91R
Philladelphia  CLOUDY    74  71  91 E7        29.85S FOG
Wash National  CLOUDY    76  73  91 N3        29.83F
Baltimore      CLOUDY    76  75  97 NE6       29.82F FOG
Miami          PTCLDY    83  76  79 CALM      29.97R HX  91
Detroit        CLOUDY    64  61  90 N7        29.93S
Newark         PTSUNNY   73  70  90 CALM      29.85F
Laguardia      MOSUNNY   72  71  97 NE8       29.85S
J F K          MOSUNNY   72  72 100 E3        29.86S
Boston Logan   MOSUNNY   69  65  86 W8        29.84S
Ft. Lauderdale PTCLDY    81  77  88 NW5       29.96R
Chicago O`Hare PTCLDY    69  63  81 N12       29.95R
Chicago Midway PTCLDY    70  66  87 N7        29.93S
Houston Bush   PTCLDY    80  76  87 CALM      29.97R
Houston Hobby  PTCLDY    80  75  84 CALM      29.97R
Nashville      CLOUDY    76  73  91 S6        29.86F
Atlanta        MOCLDY    73  72  96 SW3       29.93S

$$

GAZ044-118-TXZ119-213-NCZ071-DCZ001-MDZ014-506-PAZ021-071-NJZ106-
NYZ176-178-MAZ106-OHZ011-021-055-MIZ076-KYZ091-ILZ014-INZ047-
MNZ060-ONZ431-281200-

...Gateway Observations for Savannah International...

CITY           SKY/WX    TMP DP  RH WIND       PRES   REMARKS
Savannah Arpt  FOG       74  73  97 W3        29.92R VSB 1/4
Atlanta        MOCLDY    73  72  96 SW3       29.93S
Charlotte      MOCLDY    75  74  96 S7        29.89F
Dallas DFW     CLOUDY    84  70  62 SW13      29.90R
Houston Bush   PTCLDY    80  76  87 CALM      29.97R
Wash National  CLOUDY    76  73  91 N3        29.83F
Wash Dulles    MOCLDY    70  68  93 CALM      29.84S
Baltimore      CLOUDY    76  75  97 NE6       29.82F FOG
Philadelphia   CLOUDY    74  71  91 E7        29.85S FOG
Newark         PTSUNNY   73  70  90 CALM      29.85F
Laguardia      MOSUNNY   72  71  97 NE8       29.85S
J F K          MOSUNNY   72  72 100 E3        29.86S
Boston         MOSUNNY   69  65  86 W8        29.84S
Pittsburg      CLOUDY    70  69  97 SE3       29.87S FOG
Akron          CLOUDY    67  63  87 N8        29.88R
Cleveland      MOCLDY    69  65  86 CALM      29.90R
Cincinnati     LGT RAIN  73  73 100 CALM      29.84S FOG
Columbus       CLOUDY    69  69 100 CALM      29.86S FOG
Detroit        CLOUDY    64  61  90 N7        29.93S
Chicago O`Hare PTCLDY    69  63  81 N12       29.95R
Minneapolis    PTCLDY    66  59  78 N3        30.08R
Indianapolis   CLOUDY    74  72  93 NE7       29.85R FOG
Toronto Canada MOCLDY    63  55  77 NE10      29.96S

$$




USA.gov is the U.S. government's official web portal to all federal, state and local government web resources and services.